Lancaster, OH

3:49 AM EDT on August 31, 2016 (GMT -0400)
Fairfield County

Weather History for KLHQ - March, 2012

Change the Weather History Date:

Tuesday, March 13, 2012

  Actual Average Record
Temperature  
Mean Temperature 60 °F -  
Max Temperature 73 °F 49 °F 78 °F (1990)
Min Temperature 48 °F 29 °F 7 °F (1984)
Degree Days  
Heating Degree Days 5    
Growing Degree Days 10 (Base 50)    
Moisture  
Dew Point 54 °F    
Average Humidity 77    
Maximum Humidity 93    
Minimum Humidity 49    
Precipitation  
Precipitation 0.00 in - - ()
Sea Level Pressure  
Sea Level Pressure 30.06 in    
Wind  
Wind Speed 10 mph (WSW)    
Max Wind Speed 14 mph    
Max Gust Speed 22 mph    
Visibility 10 miles    
Events      
Averages and records for this station are not official NWS values.
T = Trace of Precipitation, MM = Missing Value Source: NWS Daily Summary

Daily Weather History Graph

Daily Weather History Graph

Search for Another Location

Airport or City:

Trip Planner

Search our weather history database for the weather conditions in past years. The results will help you decide how hot, cold, wet, or windy it might be!

Date:

Astronomy

Mar. 13, 2012 Rise Set
Actual Time 7:44 AM EDT 7:35 PM EDT
Civil Twilight 7:17 AM EDT 8:02 PM EDT
Nautical Twilight 6:46 AM EDT 8:34 PM EDT
Astronomical Twilight 6:14 AM EDT 9:05 PM EDT
Moon 1:05 AM EDT (3/13) 10:57 AM EDT (3/13)
Length of Visible Light 12h 45m
Length of Day
11h 51m
Waning Gibbous, 66% of the Moon is Illuminated
Mar 13
Waning Gibbous
Mar 14
Last Quarter
Mar 22
New
Mar 30
First Quarter
Apr 6
Full

Hourly Weather History & Observations

Time (EDT) Temp. Dew Point Humidity Pressure Visibility Wind Dir Wind Speed Gust Speed Precip Events Conditions
12:53 AM 60.1 °F 54.0 °F 80% 30.02 in 10.0 mi SSW 10.4 mph 18.4 mph N/A   Mostly Cloudy
1:03 AM 60.8 °F 53.6 °F 77% 30.02 in 10.0 mi SW 9.2 mph - N/A   Overcast
1:46 AM 59.0 °F 53.6 °F 82% 30.02 in 10.0 mi SSW 9.2 mph - N/A   Overcast
1:53 AM 59.0 °F 54.0 °F 83% 30.02 in 10.0 mi SSW 8.1 mph - N/A   Overcast
2:20 AM 60.8 °F 55.4 °F 82% 30.02 in 10.0 mi SW 11.5 mph - N/A   Overcast
2:53 AM 61.0 °F 55.0 °F 81% 30.02 in 10.0 mi SW 11.5 mph - N/A   Overcast
3:11 AM 60.8 °F 55.4 °F 82% 30.03 in 10.0 mi SW 11.5 mph 20.7 mph N/A   Mostly Cloudy
3:23 AM 60.8 °F 55.4 °F 82% 30.03 in 10.0 mi SW 12.7 mph - N/A   Mostly Cloudy
3:50 AM 60.8 °F 55.4 °F 82% 30.03 in 10.0 mi SW 13.8 mph 21.9 mph N/A   Mostly Cloudy
3:53 AM 61.0 °F 55.0 °F 81% 30.02 in 10.0 mi SW 12.7 mph 21.9 mph N/A   Overcast
4:53 AM 60.1 °F 55.0 °F 83% 30.02 in 10.0 mi SW 10.4 mph - N/A   Clear
5:53 AM 60.1 °F 55.0 °F 83% 30.03 in 10.0 mi SW 12.7 mph - N/A   Scattered Clouds
6:53 AM 60.1 °F 55.0 °F 83% 30.04 in 10.0 mi SW 11.5 mph - N/A   Partly Cloudy
7:11 AM 60.8 °F 55.4 °F 82% 30.05 in 10.0 mi SW 9.2 mph - N/A   Mostly Cloudy
7:53 AM 60.1 °F 55.9 °F 86% 30.06 in 10.0 mi SW 8.1 mph - N/A   Overcast
8:22 AM 60.8 °F 55.4 °F 82% 30.07 in 9.0 mi SW 9.2 mph - N/A   Scattered Clouds
8:53 AM 61.0 °F 55.9 °F 83% 30.07 in 9.0 mi SW 8.1 mph - N/A   Overcast
9:50 AM 62.6 °F 57.2 °F 82% 30.09 in 10.0 mi SW 9.2 mph - N/A   Mostly Cloudy
9:53 AM 62.1 °F 57.0 °F 84% 30.09 in 10.0 mi WSW 9.2 mph - N/A   Overcast
10:53 AM 64.0 °F 57.0 °F 78% 30.09 in 10.0 mi WSW 11.5 mph 18.4 mph N/A   Mostly Cloudy
11:17 AM 64.4 °F 57.2 °F 77% 30.09 in 10.0 mi West 11.5 mph - N/A   Mostly Cloudy
11:53 AM 66.0 °F 57.0 °F 73% 30.09 in 10.0 mi West 12.7 mph - N/A   Mostly Cloudy
12:00 PM 66.2 °F 57.2 °F 73% 30.09 in 10.0 mi West 10.4 mph - N/A   Mostly Cloudy
12:53 PM 66.9 °F 55.9 °F 68% 30.09 in 10.0 mi West 9.2 mph - N/A   Scattered Clouds
1:53 PM 69.1 °F 55.9 °F 63% 30.08 in 10.0 mi West 10.4 mph 19.6 mph N/A   Scattered Clouds
2:53 PM 71.1 °F 55.0 °F 57% 30.06 in 10.0 mi WSW 10.4 mph 19.6 mph N/A   Partly Cloudy
3:53 PM 72.0 °F 53.1 °F 51% 30.05 in 10.0 mi WSW 12.7 mph 20.7 mph N/A   Scattered Clouds
5:53 PM 72.0 °F 52.0 °F 49% 30.06 in 10.0 mi West 8.1 mph 17.3 mph N/A   Clear
6:53 PM 69.1 °F 51.1 °F 53% 30.08 in 10.0 mi West 5.8 mph - N/A   Partly Cloudy
7:53 PM 64.9 °F 51.1 °F 61% 30.10 in 10.0 mi West 3.5 mph - N/A   Clear
8:53 PM 55.9 °F 51.1 °F 84% 30.12 in 10.0 mi Calm Calm - N/A   Clear
9:53 PM 52.0 °F 48.9 °F 89% 30.14 in 10.0 mi Calm Calm - N/A   Clear
10:53 PM 48.9 °F 46.9 °F 93% 30.15 in 10.0 mi Calm Calm - N/A   Clear
11:53 PM 48.0 °F 46.0 °F 93% 30.15 in 9.0 mi Calm Calm - N/A   Clear